Regional Weather Roundup
Issued by NWS

Home | Current Version | Previous Version | Text Only | Print | Product List | Glossary Off
Versions: 1 2 3 4 5 6 7 8 9 10 11 12 13 14 15 16 17 18 19 20 21 22 23 24 25 26 27 28 29 30 31 32 33 34 35 36 37 38 39 40 41 42 43 44 45 46 47

000
ASUS45 KBOU 230507
RWRCO

WEATHER ROUNDUP FOR COLORADO
NATIONAL WEATHER SERVICE DENVER/BOULDER CO
1100 PM MDT TUE JUL 22 2014

NOTE: "FAIR" INDICATES FEW OR NO CLOUDS BELOW 12000 FEET WITH NO
SIGNIFICANT WEATHER AND/OR OBSTRUCTIONS TO VISIBILITY.

COZ001>005-013-030-031-230600-
...NORTHWEST COLORADO...

CITY           SKY/WX    TMP DP  RH WIND       PRES   REMARKS
CRAIG          CLEAR     56  45  66 CALM      30.33R
HAYDEN         CLEAR     64  30  27 SE3       30.36S
MEEKER         CLEAR     66  33  29 NE8       30.34R
MOUNT WERNER   NOT AVBL
STEAMBOAT SPGS CLEAR     64  36  35 CALM      30.40R
WALDEN         CLEAR     54  36  50 SE3       30.52R
$$

COZ006>008-011-230600-
...WEST CENTRAL VALLEYS...

CITY           SKY/WX    TMP DP  RH WIND       PRES   REMARKS
GRAND JUNCTION CLEAR     76  16  10 E5        30.15R
MONTROSE       MOCLDY    77  39  25 SE7       30.27R
EAGLE          CLEAR     70  36  28 SE7       30.40R
RIFLE          CLEAR     75  26  16 SE8       30.25R
DELTA          MOCLDY    79  33  18 NE6       30.20R
NUCLA          MOCLDY    75  21  13 E9        30.31R
$$

COZ017>023-064>068-230600-
...SOUTHWEST COLORADO...

CITY           SKY/WX    TMP DP  RH WIND       PRES   REMARKS
DURANGO        CLOUDY    77  43  29 CALM      30.44R
CORTEZ         CLEAR     86  35  16 SE21G28   30.30R
PAGOSA SPRINGS CLOUDY    76  34  21 S5        30.53R
TELLURIDE      CLOUDY    73  30  20 SE6       30.59R
WOLF CREEK PAS NOT AVBL
$$

COZ009-010-012-014-032>034-037-058>063-230600-
...CENTRAL COLORADO...

CITY           SKY/WX    TMP DP  RH WIND       PRES   REMARKS
ASPEN          CLEAR     67  35  30 SE6       30.47R
BUENA VISTA    PTCLDY    60  52  74 E5        30.63R
COPPER MTN     PTCLDY    59  32  36 SE10G21   30.88F
BERTHOUD PASS  FAIR      48  34  57 S7        30.94S
COTTONWOOD PAS PTCLDY    63  36  36 SE12G18   30.76S THUNDER
GUNNISON       PTCLDY    75  39  27 E15       30.51R
KREMMLING      CLEAR     64  34  32 NE6       30.49R
LEADVILLE      PTCLDY    54  39  57 SE3       30.73R
MONARCH PASS   PTCLDY    52  36  54 E29G35    30.98R
SALIDA         PTCLDY    71  43  36 N8G28     30.66R
SUNLIGHT       CLEAR     63  27  25 NE3       30.76S
WILKERSON PASS CLOUDY    55  34  44 S12G17    30.88S
$$

COZ069>075-230600-
...SAN LUIS VALLEY/SANGRE DE CRISTO MOUNTAINS...

CITY           SKY/WX    TMP DP  RH WIND       PRES   REMARKS
ALAMOSA        CLEAR     65  46  50 SE3       30.51R
LA VETA PASS   CLEAR     61  37  41 SE8       30.74R
SAGUACHE       MOCLDY    70  41  35 SE7       30.55R
$$

COZ035-036-038>040-230600-
...NORTHERN COLORADO FRONT RANGE...

CITY           SKY/WX    TMP DP  RH WIND       PRES   REMARKS
DENVER INTL AP PTCLDY    80  51  36 S12       30.32R
DMNS CITY PARK   N/A     74  48  39 S3        30.31S
AURORA         PTCLDY    76  47  36 SW6       30.34F
FRONT RANGE AP NOT AVBL
ERIE MUNI ARPT PTCLDY    75  55  49 W5        30.28S
BOULDER MUN AP PTCLDY    77  52  41 W6        30.30S
CENTENNIAL     MOCLDY    75  47  36 VRB7G20   30.36S
BROOMFIELD     NOT AVBL
FORT COLLINS   CLEAR     77  57  50 NE7       30.30R
LONGMONT       CLEAR     78  57  49 N7        30.30S
$$

COZ041-046-047-076>085-087-088-230600-
...PIKES PEAK/PALMER DIVIDE AND SOUTHERN FOOTHILLS...

CITY           SKY/WX    TMP DP  RH WIND       PRES   REMARKS
COLO. SPRINGS  MOCLDY    76  52  43 W3        30.42R
A. F. ACADEMY  CLOUDY    67  51  56 N5        30.44R
ELLICOTT       MOCLDY    71  53  52 S7        30.39S
FALCON         MOCLDY    71  51  49 W9        30.47S
FORT CARSON    MOCLDY    78  48  34 SW7       30.38R
LIMON          CLEAR     72  57  59 SE8       30.34R
MONUMENT HILL  MOCLDY    66  50  55 SW6       30.46S
TRINIDAD       CLEAR     73  48  41 NW5       30.36R
$$

COZ042>045-048>051-090-091-230600-
...NORTHEAST COLORADO...

CITY           SKY/WX    TMP DP  RH WIND       PRES   REMARKS
GREELEY ARPT   CLEAR     73  57  56 E5        30.29R
AKRON          CLEAR     74  62  66 E14       30.30R
BURLINGTON     CLEAR     74  62  66 SE7       30.26R
WRAY             N/A     77  62  59 E12       30.27R
STERLING       CLEAR     79  64  61 SE15G23   30.24R
HOLYOKE        CLEAR     73  61  64 E9        30.29R
FORT MORGAN    CLEAR     73  59  62 E8        30.28R
$$

COZ086-089-092>099-230600-
...SOUTHEAST COLORADO...

CITY           SKY/WX    TMP DP  RH WIND       PRES   REMARKS
PUEBLO         CLEAR     76  54  46 E3        30.26S
LA JUNTA       CLEAR     81  57  43 S6        30.22R
LAMAR          CLEAR     79  62  56 S15       30.18R
SPRINGFIELD      N/A     70  62  76 S8        30.27R
$$



USA.gov is the U.S. government's official web portal to all federal, state and local government web resources and services.